This is the latest recevied weather packets stored in our database for station/object N0QV. If no packets are shown the sender has not sent any weather packets the latest 10 day(s).
| Time | Temp. | Humidity | Pressure | Rain* | Wind** | Luminosity | Snow |
|---|---|---|---|---|---|---|---|
| 1788630167 | 25.56° C | 83% | 1016.5 hPa | 0 mm | - | 326 W/m² | - |
| 1788629863 | 25° C | 84% | 1016.8 hPa | 0 mm | - | 307 W/m² | - |
| 1788629560 | 25° C | 84% | 1017 hPa | 0 mm | - | 256 W/m² | - |
| 1788629253 | 25° C | 84% | 1016.9 hPa | 0 mm | - | 265 W/m² | - |
| 1788628952 | 24.44° C | 84% | 1017 hPa | 0 mm | - | 294 W/m² | - |
| 1788628648 | 24.44° C | 85% | 1017.1 hPa | 0 mm | - | 315 W/m² | - |
| 1788628344 | 23.89° C | 86% | 1017.2 hPa | 0 mm | - | 262 W/m² | - |
| 1788628042 | 23.89° C | 86% | 1017.6 hPa | 0 mm | - | 241 W/m² | - |
| 1788627742 | 23.89° C | 87% | 1017.6 hPa | 0 mm | - | 235 W/m² | - |
| 1788627441 | 23.89° C | 87% | 1017.7 hPa | 0 mm | - | 248 W/m² | - |
| 1788627136 | 23.33° C | 88% | 1017.8 hPa | 0 mm | - | 204 W/m² | - |
| 1788626831 | 23.33° C | 88% | 1017.8 hPa | 0 mm | - | 212 W/m² | - |
| 1788626531 | 23.33° C | 88% | 1017.7 hPa | 0 mm | - | 187 W/m² | - |
| 1788626226 | 22.78° C | 89% | 1017.8 hPa | 0 mm | - | 227 W/m² | - |
| 1788625923 | 22.78° C | 90% | 1018 hPa | 0 mm | - | 172 W/m² | - |
| 1788625619 | 22.78° C | 89% | 1018.1 hPa | 0 mm | - | 170 W/m² | - |
| 1788625318 | 22.78° C | 89% | 1018.1 hPa | 0 mm | - | 150 W/m² | - |
| 1788625014 | 22.78° C | 90% | 1018.3 hPa | 0 mm | - | 144 W/m² | - |
| 1788624711 | 22.22° C | 90% | 1018.2 hPa | 0 mm | - | 119 W/m² | - |
| 1788624410 | 22.22° C | 91% | 1018.5 hPa | 0 mm | - | 95 W/m² | - |
| 1788624109 | 22.22° C | 91% | 1018.3 hPa | 0 mm | - | 77 W/m² | - |
| 1788623804 | 22.22° C | 91% | 1018.3 hPa | 0 mm | - | 53 W/m² | - |
| 1788623503 | 22.22° C | 91% | 1018.3 hPa | 0 mm | - | 30 W/m² | - |
| 1788623197 | 22.22° C | 90% | 1018.5 hPa | 0 mm | - | 29 W/m² | - |
| 1788622893 | 22.22° C | 90% | 1018.2 hPa | 0 mm | - | 30 W/m² | - |
* Rain latest hour (hover to see other rain measurements)
** Current wind speed in m/s (hover to see current wind gust speed)